Visibility
15.0 1.8 3.2 15.0 15.0 15.0 15.0 15.0 15.0 15.0 15.0 15.0 15.0 15.0 15.0 15.0 15.0 15.0 15.0 15.0 15.0 15.0 15.0 15.0 15.0 15.0 15.0 15.0 15.0 15.0 15.0 15.0 15.0 15.0 15.0 15.0 15.0 15.0 15.0 15.0 15.0 15.0 10.3
15.0 14.1 2.7 14.3 1.7 6.5 15.0 14.4 15.0 15.0 15.0 15.0 15.0 15.0 15.0 15.0 15.0 15.0 15.0 15.0 15.0 15.0 15.0 15.0 15.0 15.0 15.0 6.1 15.0 15.0 15.0 15.0 15.0 15.0 15.0 15.0 15.0 15.0 15.0 15.0 15.0 15.0 15.0
15.0 15.0 15.0 13.7 15.0 15.0 15.0 15.0 15.0 15.0 15.0 15.0 15.0 15.0 15.0 15.0 15.0 15.0 15.0 15.0 15.0 15.0 15.0 15.0 15.0 15.0 15.0 15.0 13.8 12.7 15.0 15.0 15.0 15.0 15.0 15.0 15.0 15.0 15.0 15.0 15.0 15.0 15.0
15.0 15.0 15.0 15.0 15.0 15.0 15.0 15.0 15.0 15.0 15.0 15.0 15.0 15.0 15.0 15.0 15.0 15.0 15.0 9.1 15.0 15.0 15.0 15.0 15.0 15.0 15.0 15.0 15.0 15.0 9.1 4.6 15.0 15.0 15.0 15.0 15.0 10.1 15.0 15.0 15.0 15.0 15.0
15.0 12.3 14.2 15.0 15.0 15.0 15.0 15.0 15.0 15.0 7.3 15.0 5.1 15.0 15.0 15.0 15.0 15.0 15.0 15.0 15.0 15.0 15.0 15.0 15.0 15.0 15.0 15.0 15.0 15.0 3.4 15.0 9.0 15.0 15.0 15.0 15.0 15.0 7.4 10.1 15.0 15.0 15.0
15.0 15.0 15.0 15.0 15.0 15.0 14.9 15.0 4.5 14.8 11.3 1.2 15.0 8.8 12.4 14.8 15.0 15.0 15.0 15.0 15.0 15.0 3.7 15.0 15.0 15.0 15.0 15.0 15.0 15.0 15.0 15.0 15.0 15.0 15.0 15.0 15.0 15.0 15.0 15.0 15.0 15.0 15.0
15.0 15.0 15.0 15.0 15.0 15.0 15.0 15.0 15.0 4.2 3.6 2.9 2.2 2.0 2.1 2.3 2.5 12.8 2.7 15.0 15.0 15.0 15.0 15.0 15.0 15.0 15.0 15.0 15.0 15.0 15.0 15.0 15.0 15.0 15.0 15.0 15.0 6.7 7.0 15.0 15.0 15.0 15.0
15.0 15.0 15.0 15.0 15.0 15.0 15.0 15.0 15.0 15.0 15.0 1.8 0.5 1.9 0.5 2.2 2.7 1.0 0.8 2.8 15.0 15.0 15.0 15.0 15.0 15.0 15.0 15.0 15.0 15.0 15.0 15.0 15.0 15.0 15.0 15.0 4.6 5.1 2.9 15.0 15.0 15.0 15.0
15.0 15.0 15.0 15.0 15.0 15.0 15.0 15.0 15.0 15.0 15.0 15.0 13.9 6.8 2.5 0.5 1.1 2.7 2.6 4.1 2.0 15.0 15.0 15.0 13.6 14.7 15.0 15.0 15.0 15.0 15.0 15.0 0.1 0.0 0.4 0.9 0.5 12.3 15.0 12.1 1.1 0.3 1.3
15.0 15.0 15.0 15.0 15.0 15.0 15.0 15.0 15.0 15.0 15.0 15.0 15.0 14.6 3.5 3.7 3.3 3.1 3.0 2.6 2.9 2.8 15.0 15.0 15.0 15.0 15.0 15.0 15.0 15.0 15.0 15.0 15.0 0.0 0.1 0.2 0.7 15.0 2.6 15.0 15.0 15.0 3.2
15.0 15.0 15.0 15.0 15.0 15.0 15.0 15.0 15.0 15.0 15.0 15.0 15.0 12.6 14.0 15.0 15.0 6.0 4.9 5.5 10.9 4.7 15.0 15.0 15.0 15.0 15.0 9.8 5.8 15.0 15.0 15.0 15.0 11.6 11.9 15.0 15.0 15.0 15.0 15.0 15.0 15.0 15.0
15.0 15.0 15.0 15.0 15.0 15.0 15.0 15.0 15.0 15.0 15.0 15.0 15.0 15.0 15.0 8.1 12.2 5.4 2.7 0.8 0.2 4.4 15.0 15.0 15.0 15.0 15.0 15.0 0.1 10.7 6.2 0.1 15.0 3.7 15.0 15.0 15.0 10.3 15.0 15.0 15.0 15.0 15.0
15.0 15.0 15.0 15.0 15.0 15.0 15.0 15.0 15.0 15.0 15.0 15.0 15.0 15.0 15.0 15.0 14.5 15.0 13.6 0.0 0.0 1.2 15.0 15.0 15.0 15.0 0.2 0.2 0.8 15.0 0.1 0.0 15.0 4.7 6.5 14.1 0.9 4.0 15.0 15.0 15.0 15.0 15.0
15.0 15.0 15.0 15.0 15.0 15.0 15.0 15.0 15.0 15.0 15.0 15.0 4.2 0.7 15.0 15.0 15.0 12.7 0.2 2.8 0.3 0.0 0.1 0.1 0.2 1.6 2.4 9.3 0.1 0.0 0.1 0.1 3.2 15.0 15.0 13.8 1.9 14.9 15.0 15.0 15.0 15.0 15.0
15.0 15.0 15.0 15.0 15.0 15.0 15.0 15.0 15.0 15.0 8.6 15.0 15.0 15.0 3.2 0.2 9.5 4.5 8.7 15.0 15.0 0.7 0.1 8.4 0.0 0.0 0.0 0.1 0.1 0.1 0.1 0.2 0.3 0.8 10.1 2.0 0.1 0.1 2.2 15.0 15.0 15.0 15.0
15.0 15.0 15.0 15.0 15.0 15.0 15.0 15.0 0.0 0.0 0.0 0.0 0.0 0.0 0.6 0.0 0.0 0.1 0.0 0.0 0.0 0.0 0.1 0.1 0.2 0.0 0.0 0.1 0.1 0.8 0.0 0.0 0.1 3.3 0.6 2.8 11.9 1.1 0.1 9.8 15.0 15.0 15.0
15.0 15.0 15.0 15.0 15.0 15.0 15.0 15.0 15.0 0.2 0.0 0.0 0.0 0.0 0.0 0.0 0.0 0.0 0.0 0.0 0.0 0.0 0.1 14.8 14.5 15.0 14.5 2.3 0.2 0.5 0.1 0.0 9.1 0.1 0.5 10.0 2.4 15.0 0.4 0.7 15.0 15.0 15.0
15.0 15.0 15.0 15.0 15.0 15.0 15.0 15.0 15.0 15.0 15.0 15.0 0.1 0.0 0.0 0.0 0.0 0.0 0.0 0.0 0.0 0.0 13.1 15.0 15.0 15.0 15.0 15.0 5.0 2.0 15.0 13.3 0.3 3.6 2.4 15.0 15.0 12.3 15.0 15.0 15.0 13.1 15.0
15.0 15.0 15.0 15.0 15.0 15.0 15.0 15.0 15.0 15.0 15.0 15.0 11.3 0.0 0.0 0.0 0.0 0.0 0.1 0.0 0.1 7.0 1.6 15.0 15.0 15.0 15.0 3.9 15.0 15.0 15.0 15.0 12.9 9.6 15.0 2.6 6.3 15.0 15.0 15.0 15.0 7.8 15.0
15.0 15.0 15.0 15.0 15.0 15.0 15.0 15.0 15.0 15.0 15.0 15.0 15.0 15.0 0.0 0.0 0.0 0.0 0.0 0.1 5.0 15.0 15.0 15.0 15.0 15.0 15.0 13.8 12.1 12.9 15.0 0.2 4.8 14.7 15.0 15.0 15.0 15.0 15.0 15.0 15.0 15.0 15.0
13.2 10.0 14.6 15.0 14.8 15.0 15.0 15.0 15.0 15.0 15.0 15.0 15.0 7.1 0.0 0.0 0.1 0.2 0.1 0.1 7.3 15.0 15.0 15.0 15.0 15.0 15.0 5.8 9.6 15.0 6.7 4.7 6.4 3.7 13.4 15.0 15.0 15.0 15.0 15.0 15.0 15.0 15.0
0.2 8.0 12.4 9.9 10.7 15.0 15.0 15.0 15.0 15.0 15.0 15.0 15.0 9.5 0.0 0.0 13.0 15.0 15.0 15.0 15.0 15.0 15.0 15.0 15.0 15.0 15.0 15.0 12.2 15.0 14.9 12.8 15.0 13.9 15.0 15.0 15.0 15.0 15.0 15.0 15.0 15.0 15.0
15.0 15.0 15.0 11.0 12.4 6.0 7.9 14.9 15.0 15.0 15.0 15.0 15.0 11.9 0.0 0.0 0.0 9.7 15.0 15.0 15.0 15.0 15.0 15.0 11.7 10.5 15.0 15.0 11.8 6.0 4.6 11.7 15.0 15.0 15.0 15.0 15.0 15.0 15.0 15.0 15.0 15.0 15.0
15.0 15.0 13.8 2.5 6.1 6.3 14.2 15.0 15.0 15.0 15.0 15.0 15.0 15.0 12.9 0.1 0.3 2.2 15.0 15.0 14.8 15.0 15.0 14.6 15.0 13.7 5.7 6.7 13.3 12.9 15.0 15.0 15.0 15.0 15.0 15.0 15.0 11.9 15.0 15.0 15.0 15.0 15.0
15.0 7.7 1.5 1.0 14.4 15.0 15.0 15.0 15.0 15.0 15.0 15.0 15.0 15.0 15.0 15.0 15.0 4.8 15.0 15.0 14.9 5.2 6.5 15.0 15.0 15.0 15.0 15.0 9.2 4.0 0.4 1.0 15.0 13.4 15.0 15.0 15.0 15.0 15.0 15.0 15.0 15.0 15.0
0.3 0.5 8.4 5.0 9.9 8.2 10.5 15.0 15.0 15.0 15.0 15.0 15.0 15.0 15.0 15.0 15.0 15.0 15.0 11.3 10.8 13.5 3.1 3.3 15.0 15.0 7.1 10.1 12.0 0.1 0.0 0.0 0.2 0.3 15.0 15.0 15.0 15.0 15.0 15.0 15.0 15.0 15.0